Lady Lake, FL

7:02 PM EDT on September 25, 2016 (GMT -0400)
The Villages

Weather History for KVVG - February, 2014

Change the Weather History Date:

Sunday, February 9, 2014

  Actual Average (KLEE) Record (KLEE)
Temperature  
Mean Temperature 56 °F -  
Max Temperature 69 °F 64 °F 82 °F (1959)
Min Temperature 44 °F 43 °F 31 °F (1968)
Degree Days  
Heating Degree Days 8    
Growing Degree Days 6 (Base 50)    
Moisture  
Dew Point 47 °F    
Average Humidity 75    
Maximum Humidity 100    
Minimum Humidity 40    
Precipitation  
Precipitation 0.00 in - - ()
Sea Level Pressure  
Sea Level Pressure 30.11 in    
Wind  
Wind Speed 4 mph (North)    
Max Wind Speed 9 mph    
Max Gust Speed -    
Visibility 10 miles    
Events      
Averages and records for this station are not official NWS values.
T = Trace of Precipitation, MM = Missing Value Source: NWS Daily Summary

Daily Weather History Graph

Daily Weather History Graph

Search for Another Location

Airport or City:

Trip Planner

Search our weather history database for the weather conditions in past years. The results will help you decide how hot, cold, wet, or windy it might be!

Date:

Astronomy

Feb. 09, 2014 Rise Set
Actual Time 7:11 AM EST 6:13 PM EST
Civil Twilight 6:46 AM EST 6:37 PM EST
Nautical Twilight 6:18 AM EST 7:05 PM EST
Astronomical Twilight 5:51 AM EST 7:33 PM EST
Moon 2:00 PM EST (2/9) 3:07 AM EST (2/9)
Length of Visible Light 11h 50m
Length of Day
11h 02m
Waxing Gibbous, 77% of the Moon is Illuminated
Feb 9
Waxing Gibbous
Feb 14
Full
Feb 22
Last Quarter
Mar 1
New
Mar 8
First Quarter

Hourly Weather History & Observations

Time (EST) Temp. Windchill Dew Point Humidity Pressure Visibility Wind Dir Wind Speed Gust Speed Precip Events Conditions
12:15 AM 50.0 °F - 48.2 °F 94% 30.14 in 10.0 mi North 3.5 mph - N/A   Unknown
12:35 AM 50.0 °F - 46.4 °F 87% 30.13 in 10.0 mi North 4.6 mph - N/A   Unknown
12:55 AM 50.0 °F - 46.4 °F 87% 30.13 in 10.0 mi North 4.6 mph - N/A   Unknown
1:15 AM 48.2 °F - 46.4 °F 93% 30.13 in 10.0 mi North 3.5 mph - N/A   Unknown
1:35 AM 48.2 °F - 46.4 °F 93% 30.12 in 10.0 mi Calm Calm - N/A   Unknown
1:55 AM 48.2 °F - 46.4 °F 93% 30.11 in 10.0 mi North 3.5 mph - N/A   Unknown
2:15 AM 48.2 °F - 46.4 °F 93% 30.10 in 10.0 mi NNE 4.6 mph - N/A   Unknown
2:35 AM 48.2 °F - 46.4 °F 93% 30.11 in 10.0 mi Calm Calm - N/A   Unknown
2:55 AM 46.4 °F - 46.4 °F 100% 30.10 in 10.0 mi Calm Calm - N/A   Unknown
3:15 AM 46.4 °F - 46.4 °F 100% 30.10 in 9.0 mi Calm Calm - N/A   Unknown
3:35 AM 46.4 °F - 44.6 °F 93% 30.11 in 10.0 mi Calm Calm - N/A   Unknown
3:55 AM 46.4 °F 44.3 °F 44.6 °F 93% 30.11 in 10.0 mi NW 4.6 mph - N/A   Unknown
4:15 AM 46.4 °F - 44.6 °F 93% 30.11 in 10.0 mi Calm Calm - N/A   Unknown
4:35 AM 44.6 °F 43.1 °F 44.6 °F 100% 30.11 in 10.0 mi NNW 3.5 mph - N/A   Unknown
4:55 AM 44.6 °F - 44.6 °F 100% 30.10 in 10.0 mi Calm Calm - N/A   Unknown
5:15 AM 44.6 °F - 44.6 °F 100% 30.10 in 10.0 mi Calm Calm - N/A   Unknown
5:35 AM 44.6 °F - 44.6 °F 100% 30.10 in 10.0 mi Calm Calm - N/A   Unknown
5:55 AM 44.6 °F - 44.6 °F 100% 30.10 in 10.0 mi Calm Calm - N/A   Unknown
6:15 AM 44.6 °F 42.2 °F 44.6 °F 100% 30.11 in 10.0 mi NNW 4.6 mph - N/A   Unknown
6:35 AM 44.6 °F 43.1 °F 42.8 °F 93% 30.12 in 10.0 mi NNW 3.5 mph - N/A   Unknown
6:55 AM 44.6 °F 41.4 °F 42.8 °F 93% 30.12 in 10.0 mi NNW 5.8 mph - N/A   Unknown
7:15 AM 44.6 °F 42.2 °F 42.8 °F 93% 30.13 in 10.0 mi NNW 4.6 mph - N/A   Unknown
7:35 AM 44.6 °F 43.1 °F 44.6 °F 100% 30.13 in 10.0 mi NNW 3.5 mph - N/A   Unknown
7:55 AM 46.4 °F - 44.6 °F 93% 30.13 in 10.0 mi Calm Calm - N/A   Unknown
8:15 AM 48.2 °F - 46.4 °F 93% 30.14 in 10.0 mi North 5.8 mph - N/A   Unknown
8:35 AM 51.8 °F - 48.2 °F 88% 30.15 in 10.0 mi North 5.8 mph - N/A   Unknown
8:55 AM 51.8 °F - 48.2 °F 88% 30.16 in 10.0 mi North 5.8 mph - N/A   Unknown
9:15 AM 53.6 °F - 48.2 °F 82% 30.16 in 10.0 mi North 6.9 mph - N/A   Unknown
9:35 AM 53.6 °F - 48.2 °F 82% 30.17 in 10.0 mi North 6.9 mph - N/A   Unknown
9:55 AM 55.4 °F - 50.0 °F 82% 30.17 in 10.0 mi North 6.9 mph - N/A   Unknown
10:15 AM 57.2 °F - 51.8 °F 82% 30.18 in 10.0 mi North 6.9 mph - N/A   Unknown
10:35 AM 59.0 °F - 51.8 °F 77% 30.17 in 10.0 mi North 6.9 mph - N/A   Unknown
10:55 AM 60.8 °F - 53.6 °F 77% 30.17 in 10.0 mi North 6.9 mph - N/A   Unknown
11:15 AM 60.8 °F - 51.8 °F 72% 30.16 in 10.0 mi North 8.1 mph - N/A   Unknown
11:35 AM 62.6 °F - 51.8 °F 68% 30.15 in 10.0 mi North 6.9 mph - N/A   Unknown
11:55 AM 64.4 °F - 51.8 °F 64% 30.15 in 10.0 mi North 8.1 mph - N/A   Unknown
12:15 PM 64.4 °F - 51.8 °F 64% 30.14 in 10.0 mi North 9.2 mph - N/A   Unknown
12:35 PM 66.2 °F - 51.8 °F 60% 30.13 in 10.0 mi North 8.1 mph - N/A   Unknown
12:55 PM 66.2 °F - 50.0 °F 56% 30.12 in 10.0 mi North 6.9 mph - N/A   Unknown
1:15 PM 68.0 °F - 50.0 °F 52% 30.11 in 10.0 mi NNW 5.8 mph - N/A   Unknown
1:35 PM 68.0 °F - 48.2 °F 49% 30.10 in 10.0 mi North 9.2 mph - N/A   Unknown
1:55 PM 69.8 °F - 48.2 °F 46% 30.10 in 10.0 mi North 8.1 mph - N/A   Unknown
2:15 PM 69.8 °F - 48.2 °F 46% 30.09 in 10.0 mi North 4.6 mph - N/A   Unknown
2:35 PM 69.8 °F - 46.4 °F 43% 30.08 in 10.0 mi North 6.9 mph - N/A   Unknown
2:55 PM 69.8 °F - 46.4 °F 43% 30.08 in 10.0 mi NNE 5.8 mph - N/A   Unknown
3:15 PM 69.8 °F - 46.4 °F 43% 30.07 in 10.0 mi North 8.1 mph - N/A   Unknown
3:35 PM 69.8 °F - 44.6 °F 40% 30.07 in 10.0 mi NNE 8.1 mph - N/A   Unknown
3:55 PM 69.8 °F - 44.6 °F 40% 30.07 in 10.0 mi NNE 6.9 mph - N/A   Unknown
4:15 PM 69.8 °F - 46.4 °F 43% 30.07 in 10.0 mi NNE 8.1 mph - N/A   Unknown
4:35 PM 69.8 °F - 46.4 °F 43% 30.07 in 10.0 mi NE 6.9 mph - N/A   Unknown
4:55 PM 69.8 °F - 46.4 °F 43% 30.07 in 10.0 mi North 3.5 mph - N/A   Unknown
5:15 PM 68.0 °F - 44.6 °F 43% 30.08 in 10.0 mi NNW 4.6 mph - N/A   Unknown
5:35 PM 66.2 °F - 46.4 °F 49% 30.08 in 10.0 mi North 3.5 mph - N/A   Unknown
5:55 PM 66.2 °F - 46.4 °F 49% 30.08 in 10.0 mi North 3.5 mph - N/A   Unknown
6:15 PM 64.4 °F - 46.4 °F 52% 30.09 in 10.0 mi North 3.5 mph - N/A   Unknown
6:35 PM 62.6 °F - 48.2 °F 59% 30.09 in 10.0 mi Calm Calm - N/A   Unknown
6:55 PM 62.6 °F - 48.2 °F 59% 30.10 in 10.0 mi Calm Calm - N/A   Unknown
7:15 PM 60.8 °F - 48.2 °F 63% 30.10 in 10.0 mi Calm Calm - N/A   Unknown
7:35 PM 57.2 °F - 48.2 °F 72% 30.10 in 10.0 mi Calm Calm - N/A   Unknown
7:55 PM 57.2 °F - 48.2 °F 72% 30.10 in 10.0 mi Calm Calm - N/A   Unknown
8:15 PM 55.4 °F - 48.2 °F 77% 30.11 in 10.0 mi Calm Calm - N/A   Unknown
8:35 PM 55.4 °F - 48.2 °F 77% 30.11 in 10.0 mi NNE 4.6 mph - N/A   Unknown
8:55 PM 57.2 °F - 46.4 °F 67% 30.11 in 10.0 mi NE 5.8 mph - N/A   Unknown
9:15 PM 55.4 °F - 48.2 °F 77% 30.12 in 10.0 mi NE 4.6 mph - N/A   Unknown
9:35 PM 55.4 °F - 48.2 °F 77% 30.12 in 10.0 mi Calm Calm - N/A   Unknown
9:55 PM - - - N/A% - - North - - N/A   Unknown
10:15 PM - - - N/A% - - North - - N/A   Unknown
10:35 PM - - - N/A% - - North - - N/A   Unknown
10:55 PM - - - N/A% - - North - - N/A   Unknown
11:15 PM - - - N/A% - - North - - N/A   Unknown
11:35 PM - - - N/A% - - North - - N/A   Unknown
11:55 PM - - - N/A% - - North - - N/A   Unknown